Flag for U.S.A. Weather past 2 weeks in Winamac, Indiana, U.S.A.

Now
57 °F

Clear.


Feels Like: 55 °F
Forecast: 40 / 63 °F
Wind: 9 mph from Northwest

Location: Porter County Municipal Airport

Current Time: Oct 26, 2014 at 1:22:47 AM

Latest Report: Oct 26, 2014 at 12:56 AM


Visibility: 10 mi

Pressure: 29.96 "Hg

Humidity: 36%

Dew point: 30 °F

Location of WinamacLocation

Historic Weather in Winamac — Graph

°F

Winamac temperature yesterday

Maximum temperature yesterday: 73 °F (at 3:56 PM)
Minimum temperature yesterday: 51 °F (at 6:56 AM)
Average temperature yesterday: 60 °F

Past Weeks' High & Low Weather Summary

 TemperatureHumidityPressure
High73 °F (Oct 25, 3:56 PM)100% (Oct 23, 2:56 AM)30.39 "Hg (Oct 23, 2:56 AM)
Low30 °F (Oct 23, 6:56 AM)24% (Oct 25, 3:56 PM)29.49 "Hg (Oct 14, 1:56 PM)
Average52 °F78%29.96 "Hg
* Reported Oct 10 11:56 PM — Oct 25 11:56 PM, Winamac, Weather by CustomWeather, © 2014

Note: Actual official high and low records may vary slightly from our data, if they occured in-between our weather recording intervals... More about our weather records

Advertising

Winamac weather history for previous 24 hours

 ConditionsComfort  
Time TempWeatherWind HumidityBarometerVisibility
11:56 PM
Oct 25
57 °FClear.6 mph36%29.95 "Hg10 mi
10:56 PM60 °FClear.8 mph30%29.95 "Hg10 mi
9:56 PM62 °FClear.10 mph27%29.94 "Hg10 mi
8:56 PM62 °FClear.12 mph27%29.93 "Hg10 mi
7:56 PM62 °FClear.8 mph30%29.91 "Hg10 mi
6:56 PM63 °FClear.9 mph34%29.90 "Hg10 mi
5:56 PM70 °FSunny.12 mph26%29.90 "Hg10 mi
4:56 PM72 °FSunny.16 mph27%29.90 "Hg10 mi
3:56 PM73 °FSunny.12 mph24%29.90 "Hg10 mi
2:56 PM71 °FSunny.14 mph38%29.91 "Hg10 mi
1:56 PM69 °FSunny.13 mph33%29.94 "Hg10 mi
12:56 PM69 °FSunny.12 mph44%29.95 "Hg10 mi
11:56 AM63 °FHaze.9 mph75%29.95 "Hg6 mi
10:56 AM58 °FFog.9 mph87%29.95 "Hg5 mi
9:56 AM54 °FFog.8 mph97%29.94 "Hg2 mi
8:56 AM53 °FFog.8 mph100%29.94 "Hg1 mi
7:56 AM52 °FFog.7 mph93%29.92 "Hg5 mi
6:56 AM51 °FFog.5 mph92%29.92 "Hg5 mi
5:56 AM53 °FFog.6 mph93%29.92 "Hg5 mi
4:56 AM52 °FFog.6 mph93%29.90 "Hg6 mi
3:56 AM53 °FFog.No wind89%29.91 "Hg6 mi
2:56 AM55 °FMostly cloudy.3 mph87%29.92 "Hg9 mi
1:56 AM55 °FOvercast.3 mph83%29.94 "Hg10 mi
Weather by CustomWeather, © 2014

See weather overviewHow to use our weather pages